Location: Zilina
(0.0000°N, 18.7333°E)
Time: 11:30:37
(UTC+01:00)

Cosmos 1602 - Pass Details

Date: 19 February 2019
Orbit: 516 x 535 km, 82.5° (Epoch: 25 March)

Event Time Altitude Azimuth Distance (km) Brightness Sun altitude
Rises 18:53:25 0° 171° (S) 2,630 7.3 -13.4°
Reaches altitude 10° 18:55:39 10° 163° (SSE) 1,742 6.3 -13.9°
Maximum altitude 18:59:13 38° 94° (E) 794 4.1 -14.8°
Enters shadow 19:01:27 19° 35° (NE) 1,253 5.2 -15.3°
